WA5LEE Weather Reports


time (UTC)temp
C
wind
direction
speed
KPH
gust
KPH
rain 1hr
cm
rain 24hr
cm
rain mn
cm
humidity
%
barometer
mb
20260510000046 28 197 0.0 0.0 0.00 0.00 0.00 78 1008.1
20260509235515 28 197 0.0 0.0 0.00 0.00 0.00 77 1007.9
20260509235019 28 197 0.0 0.0 0.00 0.00 0.00 76 1008.0
20260509234529 29 197 0.0 0.0 0.00 0.00 0.00 76 1007.9
20260509234011 29 197 0.0 0.0 0.00 0.00 0.00 76 1007.9
20260509233515 30 197 0.0 0.0 0.00 0.00 0.00 74 1007.9
20260509232506 30 197 0.0 0.0 0.00 0.00 0.00 71 1008.0
20260509231528 31 197 0.0 0.0 0.00 0.00 0.00 70 1008.0
20260509231007 31 197 0.0 0.0 0.00 0.00 0.00 70 1008.0
20260509230507 31 197 0.0 0.0 0.00 0.00 0.00 68 1007.9
20260509230026 31 197 0.0 0.0 0.00 0.00 0.00 67 1007.8
20260509225507 32 197 0.0 0.0 0.00 0.00 0.00 63 1007.7
20260509225007 32 197 0.0 0.0 0.00 0.00 0.00 64 1007.8
20260509224525 33 197 0.0 0.0 0.00 0.00 0.00 63 1007.8
20260509224006 33 197 0.0 1.6 0.00 0.00 0.00 60 1007.9
20260509223028 32 76 0.0 0.0 0.00 0.00 0.00 63 1007.7
20260509222504 32 76 0.0 0.0 0.00 0.00 0.00 63 1007.7
20260509222008 32 76 0.0 3.2 0.00 0.00 0.00 59 1007.6
20260509221522 33 76 0.0 3.2 0.00 0.00 0.00 57 1007.5
20260509221009 33 78 0.0 3.2 0.00 0.00 0.00 55 1007.6
20260509220508 33 71 0.0 3.2 0.00 0.00 0.00 59 1007.7
20260509220023 33 32 0.0 3.2 0.00 0.00 0.00 58 1007.6
20260509215511 33 245 0.0 3.2 0.00 0.00 0.00 55 1007.6
20260509214526 35 96 0.0 3.2 0.00 0.00 0.00 53 1007.6
20260509213509 34 220 0.0 3.2 0.00 0.00 0.00 55 1007.7
20260509212012 34 213 1.6 3.2 0.00 0.00 0.00 57 1007.8
20260509211517 33 240 0.0 1.6 0.00 0.00 0.00 56 1007.7
20260509211006 33 79 0.0 3.2 0.00 0.00 0.00 58 1007.7
20260509210510 33 89 0.0 3.2 0.00 0.00 0.00 57 1007.8
20260509210034 33 223 1.6 3.2 0.00 0.00 0.00 57 1008.0
20260509205507 33 113 0.0 3.2 0.00 0.00 0.00 57 1008.1
20260509205010 33 189 0.0 3.2 0.00 0.00 0.00 58 1008.1
20260509204534 33 207 0.0 3.2 0.00 0.00 0.00 58 1008.2
20260509204007 33 246 0.0 3.2 0.00 0.00 0.00 58 1008.2
20260509203509 33 192 0.0 3.2 0.00 0.00 0.00 59 1008.2
20260509203022 33 160 0.0 4.8 0.00 0.00 0.00 61 1008.2
20260509202509 32 197 0.0 4.8 0.00 0.00 0.00 60 1008.3
20260509202007 32 213 1.6 3.2 0.00 0.00 0.00 62 1008.4
20260509201010 32 147 0.0 3.2 0.00 0.00 0.00 65 1008.5
20260509200514 31 217 1.6 3.2 0.00 0.00 0.00 66 1008.6
20260509200018 31 324 0.0 3.2 0.00 0.00 0.00 66 1008.8
20260509195509 31 251 1.6 3.2 0.00 0.00 0.00 63 1008.7
20260509194517 31 277 0.0 3.2 0.00 0.00 0.00 71 1008.8
20260509194003 30 323 0.0 3.2 0.00 0.00 0.00 67 1009.0
20260509193504 30 348 0.0 3.2 0.00 0.00 0.00 69 1009.0
20260509193013 30 35 0.0 3.2 0.00 0.00 0.00 73 1009.1
20260509192502 30 259 0.0 3.2 0.00 0.00 0.00 71 1009.2
20260509192004 30 263 0.0 3.2 0.00 0.00 0.00 73 1009.2
20260509191517 30 54 0.0 3.2 0.00 0.00 0.00 74 1009.3
20260509191008 30 146 0.0 3.2 0.00 0.00 0.00 73 1009.3
20260509190503 29 227 0.0 3.2 0.00 0.00 0.00 75 1009.3
20260509190009 28 255 0.0 3.2 0.00 0.00 0.00 75 1009.4
20260509185503 28 331 0.0 3.2 0.00 0.00 0.00 75 1009.4
20260509183507 28 196 0.0 0.0 0.00 0.00 0.00 75 1009.7
20260509183009 28 196 0.0 1.6 0.00 0.00 0.00 74 1009.8
20260509182507 28 196 0.0 3.2 0.00 0.00 0.00 74 1009.8
20260509182008 28 196 0.0 3.2 0.00 0.00 0.00 74 1009.9
20260509181520 28 171 0.0 1.6 0.00 0.00 0.00 76 1010.0
20260509181004 28 171 0.0 1.6 0.00 0.00 0.00 75 1010.1
20260509180503 28 171 0.0 3.2 0.00 0.00 0.00 76 1010.1
20260509180019 28 61 0.0 3.2 0.00 0.00 0.00 76 1010.2
20260509175503 28 352 0.0 3.2 0.00 0.00 0.00 75 1010.2
20260509175006 28 352 0.0 3.2 0.00 0.00 0.00 75 1010.4
20260509174514 28 250 0.0 3.2 0.00 0.00 0.00 75 1010.4
20260509174006 28 265 0.0 3.2 0.00 0.00 0.00 74 1010.4
20260509173503 28 198 0.0 3.2 0.00 0.00 0.00 78 1010.6
20260509172507 27 234 0.0 3.2 0.00 0.00 0.00 78 1010.3
20260509172003 27 123 0.0 3.2 0.00 0.00 0.00 78 1010.3
20260509171509 27 94 0.0 3.2 0.00 0.00 0.00 81 1010.3
20260509171006 27 38 0.0 4.8 0.00 0.00 0.00 80 1010.2
20260509170004 27 218 0.0 4.8 0.00 0.00 0.00 81 1010.1
20260509165505 26 98 0.0 4.8 0.00 0.00 0.00 83 1010.1
20260509165007 26 98 0.0 4.8 0.00 0.00 0.00 83 1010.2
20260509164504 26 226 1.6 4.8 0.00 0.00 0.00 83 1010.3
20260509164003 26 139 0.0 3.2 0.00 0.00 0.00 83 1010.2
20260509163506 26 225 0.0 3.2 0.00 0.00 0.00 82 1010.3
20260509163024 26 225 0.0 3.2 0.00 0.00 0.00 83 1010.4
20260509162502 26 65 0.0 1.6 0.00 0.00 0.00 84 1010.4
20260509161516 26 325 0.0 0.0 0.00 0.00 0.00 84 1010.4
20260509161001 26 309 0.0 0.0 0.00 0.00 0.00 85 1010.3
20260509160504 25 213 0.0 3.2 0.00 0.00 0.00 86 1010.3
20260509155003 25 213 0.0 3.2 0.00 0.00 0.00 85 1010.8
20260509154512 25 213 0.0 3.2 0.00 0.00 0.00 86 1011.0
20260509154009 25 213 0.0 3.2 0.00 0.00 0.00 86 1010.9
20260509153020 25 173 0.0 3.2 0.00 0.00 0.00 87 1010.9
20260509152504 25 173 0.0 1.6 0.00 0.00 0.00 87 1010.8
20260509152017 25 173 0.0 1.6 0.00 0.00 0.00 87 1010.8
20260509151508 25 38 0.0 3.2 0.00 0.00 0.00 87 1010.8
20260509150507 24 250 0.0 3.2 0.00 0.00 0.00 88 1010.8
20260509150030 24 250 0.0 0.0 0.00 0.00 0.00 89 1010.7
20260509145503 24 250 0.0 0.0 0.00 0.00 0.00 90 1010.6
20260509145010 23 250 0.0 0.0 0.00 0.00 0.00 90 1010.6
20260509144007 23 250 0.0 0.0 0.00 0.00 0.00 90 1010.5
20260509143504 23 250 0.0 0.0 0.00 0.00 0.00 91 1010.4
20260509143021 23 250 0.0 0.0 0.00 0.00 0.00 90 1010.3
20260509142508 23 250 0.0 1.6 0.00 0.00 0.00 91 1010.3
20260509142008 23 250 0.0 1.6 0.00 0.00 0.00 91 1010.1
20260509141519 23 250 0.0 0.0 0.00 0.00 0.00 91 1010.0
20260509141008 23 298 0.0 0.0 0.00 0.00 0.00 91 1010.0
20260509140503 23 298 0.0 0.0 0.00 0.00 0.00 91 1010.1
20260509140012 23 298 0.0 0.0 0.00 0.00 0.00 92 1010.1
20260509135509 -17 0.0 0.0 0.00 0.00 0.00 1010.0
20260509135014 -17 0.0 0.0 0.00 0.00 0.00 1010.2
20260509134545 -17 0.0 0.0 0.00 0.00 0.00 1010.1
20260509134013 -17 0.0 0.0 0.00 0.00 0.00 1010.4
20260509133514 -17 0.0 0.0 0.00 0.00 0.00 1010.4
20260509133032 -17 0.0 0.0 0.00 0.00 0.00 1010.7
20260509132513 -17 0.0 0.0 0.00 0.00 0.00 1010.6
20260509132013 -17 0.0 0.0 0.00 0.00 0.00 1010.6
20260509131531 -17 0.0 0.0 0.00 0.00 0.00 1010.7
20260509131013 -17 0.0 0.0 0.00 0.00 0.00 1010.8
20260509130513 -17 0.0 0.0 0.00 0.00 0.00 1010.7
20260509130034 -17 0.0 0.0 0.00 0.00 0.00 1010.6
20260509125511 -17 0.0 0.0 0.00 0.00 0.00 1010.4
20260509125008 -17 0.0 0.0 0.00 0.00 0.00 1010.5
20260509124534 -17 0.0 0.0 0.00 0.00 0.00 1010.7
20260509124010 -17 0.0 0.0 0.00 0.00 0.00 1010.7
20260509123510 -17 0.0 0.0 0.00 0.00 0.00 1010.7
20260509123028 -17 0.0 0.0 0.00 0.00 0.00 1010.7
20260509122512 -17 0.0 0.0 0.00 0.00 0.00 1010.6
20260509122016 -17 0.0 0.0 0.00 0.00 0.00 1010.4
20260509121540 -17 0.0 0.0 0.00 0.00 0.00 1010.4
20260509121010 -17 0.0 0.0 0.00 0.00 0.00 1010.2
20260509120512 -17 0.0 0.0 0.00 0.00 0.00 1009.9
20260509120032 -17 0.0 0.0 0.00 0.00 0.00 1009.7
20260509115510 -17 0.0 0.0 0.00 0.00 0.00 1009.6
20260509115015 -17 0.0 0.0 0.00 0.00 0.00 1009.7
20260509114536 -17 0.0 0.0 0.00 0.00 0.00 1009.9
20260509114011 -17 0.0 0.0 0.00 0.00 0.00 1009.9
20260509113510 -17 0.0 0.0 0.00 0.00 0.00 1009.9
20260509113036 -17 0.0 0.0 0.00 0.00 0.00 1009.9
20260509110511 -17 0.0 0.0 0.00 0.00 0.00 1010.3
20260509104540 -17 0.0 0.0 0.00 0.00 0.00 1010.1
20260509104013 -17 0.0 0.0 0.00 0.00 0.00 1010.2
20260509103511 -17 0.0 0.0 0.00 0.00 0.00 1010.2
20260509103031 -17 0.0 0.0 0.00 0.00 0.00 1010.1
20260509101541 -17 0.0 0.0 0.00 0.00 0.00 1009.7
20260509101010 -17 0.0 0.0 0.00 0.00 0.00 1009.5
20260509095510 -17 0.0 0.0 0.00 0.00 0.00 1009.1
20260509094011 -17 0.0 0.0 0.00 0.00 0.00 1009.2
20260509093509 -17 0.0 0.0 0.00 0.00 0.00 1009.5
20260509093031 -17 0.0 0.0 0.00 0.00 0.00 1009.5
20260509092509 -17 0.0 0.0 0.00 0.00 0.00 1009.7
20260509092011 -17 0.0 0.0 0.00 0.00 0.00 1009.8
20260509091538 -17 0.0 0.0 0.00 0.00 0.00 1009.8
20260509091011 -17 0.0 0.0 0.00 0.00 0.00 1009.7
20260509085508 -17 0.0 0.0 0.00 0.00 0.00 1009.8
20260509085012 -17 0.0 0.0 0.00 0.00 0.00 1009.9
20260509084536 -17 0.0 0.0 0.00 0.00 0.00 1010.1
20260509084010 -17 0.0 0.0 0.00 0.00 0.00 1010.0
20260509083510 -17 0.0 0.0 0.00 0.00 0.00 1009.9
20260509083032 -17 0.0 0.0 0.00 0.00 0.00 1010.0
20260509082510 22 0.0 0.0 0.00 0.00 0.00 1009.9
20260509082012 22 0.0 0.0 0.00 0.00 0.00 1009.8
20260509081524 22 268 0.0 0.0 0.00 0.00 0.00 92 1009.7
20260509081008 22 268 0.0 0.0 0.00 0.00 0.00 92 1009.7
20260509080504 22 268 0.0 0.0 0.00 0.00 0.00 92 1009.6
20260509080014 22 268 0.0 0.0 0.00 0.00 0.00 92 1009.6
20260509075507 22 182 0.0 0.0 0.00 0.00 0.00 91 1009.5
20260509075008 22 182 0.0 0.0 0.00 0.00 0.00 91 1009.6
20260509074006 22 182 0.0 0.0 0.00 0.00 0.00 91 1009.6
20260509073507 22 182 0.0 0.0 0.00 0.00 0.00 91 1009.7
20260509073011 22 182 0.0 0.0 0.00 0.00 0.00 91 1009.8
20260509072505 22 182 0.0 0.0 0.00 0.00 0.00 91 1009.8
20260509071522 22 182 0.0 0.0 0.00 0.00 0.00 91 1009.8
20260509071004 22 182 0.0 0.0 0.00 0.00 0.00 91 1009.8
20260509070507 22 182 0.0 0.0 0.00 0.00 0.00 91 1009.8
20260509070023 22 182 0.0 0.0 0.00 0.00 0.00 91 1009.8
20260509065504 22 182 0.0 0.0 0.00 0.00 0.00 91 1009.8
20260509065004 22 182 0.0 0.0 0.00 0.00 0.00 91 1009.9
20260509064520 22 182 0.0 0.0 0.00 0.00 0.00 91 1009.9
20260509064013 22 182 0.0 0.0 0.00 0.00 0.00 91 1009.9
20260509063505 22 182 0.0 0.0 0.00 0.00 0.00 91 1010.0
20260509063024 22 182 0.0 0.0 0.00 0.00 0.00 91 1009.9
20260509062508 22 182 0.0 0.0 0.00 0.00 0.00 91 1009.9
20260509062015 22 182 0.0 0.0 0.00 0.00 0.00 91 1010.1
20260509061513 22 182 0.0 0.0 0.00 0.00 0.00 91 1010.2
20260509061012 22 182 0.0 0.0 0.00 0.00 0.00 91 1010.4
20260509060508 22 182 0.0 0.0 0.00 0.00 0.00 91 1010.3
20260509060017 22 182 0.0 0.0 0.00 0.00 0.00 91 1010.3
20260509055509 22 182 0.0 0.0 0.00 0.00 0.00 91 1010.3
20260509055009 22 182 0.0 0.0 0.00 0.00 0.00 91 1010.4
20260509054534 22 182 0.0 0.0 0.00 0.00 0.00 91 1010.3
20260509054005 22 182 0.0 0.0 0.00 0.00 0.00 91 1010.3
20260509053507 22 49 0.0 0.0 0.00 0.00 0.00 91 1010.3
20260509053024 22 49 0.0 0.0 0.00 0.00 0.00 91 1010.4
20260509052503 22 49 0.0 0.0 0.00 0.00 0.00 91 1010.4
20260509052007 22 49 0.0 0.0 0.00 0.00 0.00 91 1010.3
20260509051522 22 49 0.0 0.0 0.00 0.00 0.00 91 1010.3
20260509051010 22 49 0.0 0.0 0.00 0.00 0.00 91 1010.2
20260509050506 22 49 0.0 0.0 0.00 0.00 0.00 91 1010.4
20260509050019 22 49 0.0 0.0 0.00 0.00 0.00 91 1010.3
20260509045513 22 49 0.0 0.0 0.00 0.00 0.00 91 1010.4
20260509045004 22 49 0.0 0.0 0.00 0.00 0.00 91 1010.5
20260509044515 22 49 0.0 0.0 0.00 0.00 0.00 91 1010.5
20260509044012 22 49 0.0 0.0 0.00 0.00 0.00 91 1010.6
20260509043510 22 33 0.0 0.0 0.00 0.00 0.00 91 1010.5
20260509043012 22 31 0.0 0.0 0.00 0.00 0.00 91 1010.6
20260509042509 22 31 0.0 0.0 0.00 0.00 0.00 91 1010.4
20260509042011 22 31 0.0 0.0 0.00 0.00 0.00 91 1010.3
20260509041511 22 44 0.0 0.0 0.00 0.00 0.00 91 1010.5
20260509041007 22 44 0.0 0.0 0.00 0.00 0.00 91 1010.5
20260509040509 22 44 0.0 0.0 0.00 0.00 0.00 91 1010.3
20260509040024 22 44 0.0 0.0 0.00 0.00 0.00 91 1010.3
20260509035506 22 41 0.0 0.0 0.00 0.00 0.00 91 1010.3
20260509035005 22 42 0.0 0.0 0.00 0.00 0.00 91 1010.2
20260509034527 22 44 0.0 0.0 0.00 0.00 0.00 91 1010.2
20260509034010 22 44 0.0 0.0 0.00 0.00 0.00 91 1010.2
20260509033508 22 44 0.0 3.2 0.00 0.00 0.00 91 1010.2
20260509033026 22 44 0.0 3.2 0.00 0.00 0.00 91 1010.2
20260509032511 22 44 0.0 3.2 0.00 0.00 0.00 90 1010.2
20260509032009 22 42 0.0 0.0 0.00 0.00 0.00 91 1010.2
20260509031530 22 42 0.0 3.2 0.00 0.00 0.00 90 1010.2
20260509031010 22 44 0.0 3.2 0.00 0.00 0.00 90 1010.1
20260509030511 22 43 0.0 1.6 0.00 0.00 0.00 90 1010.1
20260509030018 22 43 0.0 3.2 0.00 0.00 0.00 90 1010.1
20260509025507 22 31 0.0 3.2 0.00 0.00 0.00 90 1010.0
20260509025009 22 44 0.0 1.6 0.00 0.00 0.00 90 1009.9
20260509024516 22 44 0.0 3.2 0.00 0.00 0.00 90 1009.8
20260509024008 22 44 0.0 3.2 0.00 0.00 0.00 90 1009.7
20260509023508 22 180 0.0 1.6 0.00 0.00 0.00 90 1009.7
20260509023029 22 84 0.0 0.0 0.00 0.00 0.00 90 1009.8
20260509022509 22 84 0.0 3.2 0.00 0.00 0.00 90 1009.7
20260509022010 22 84 0.0 3.2 0.00 0.00 0.00 90 1009.6
20260509021533 22 84 0.0 3.2 0.00 0.00 0.00 90 1009.5
20260509021007 22 84 0.0 3.2 0.00 0.00 0.00 90 1009.5
20260509020508 22 84 0.0 3.2 0.00 0.00 0.00 90 1009.5
20260509020040 22 194 0.0 0.0 0.00 0.00 0.00 90 1009.6
20260509015510 22 194 0.0 3.2 0.00 0.00 0.00 90 1009.5
20260509014501 22 195 0.0 0.0 0.00 0.00 0.00 90 1009.5
20260509014002 22 195 0.0 0.0 0.00 0.00 0.00 90 1009.6
20260509013502 22 194 0.0 0.0 0.00 0.00 0.00 89 1009.6
20260509013006 22 194 0.0 0.0 0.00 0.00 0.00 89 1009.7
20260509012503 22 195 0.0 1.6 0.00 0.00 0.00 89 1009.6
20260509011503 22 61 0.0 3.2 0.00 0.00 0.00 89 1009.3
20260509011002 22 89 0.0 3.2 0.00 0.00 0.00 89 1009.3
20260509010503 22 89 0.0 3.2 0.00 0.00 0.00 89 1009.3
20260509010005 22 89 0.0 3.2 0.00 0.00 0.00 89 1009.3
20260509005503 22 83 0.0 1.6 0.00 0.00 0.00 89 1009.2
20260509005003 22 103 0.0 0.0 0.00 0.00 0.00 89 1009.1
20260509004507 22 103 0.0 3.2 0.00 0.00 0.00 89 1009.1
20260509004006 22 102 0.0 3.2 0.00 0.00 0.00 89 1009.0
20260509003503 22 121 0.0 3.2 0.00 0.00 0.00 89 1009.1
20260509003003 22 63 0.0 1.6 0.00 0.00 0.00 89 1009.2
20260509002504 22 57 0.0 3.2 0.00 0.00 0.00 89 1009.2
20260509002002 22 66 0.0 3.2 0.00 0.00 0.00 88 1009.4
20260509001506 23 66 0.0 3.2 0.00 0.00 0.00 88 1009.6
20260509000503 23 95 0.0 3.2 0.00 0.00 0.00 87 1009.5